Total_Precipitation_Accumulation
0.18 0.18 0.26 0.45 0.56 0.54 0.50 0.53 0.70 0.73 0.66 0.61 0.55 0.61 0.67 0.70 0.66 0.58 0.55 0.56 0.61 0.65 0.64 0.62 0.59 0.62 0.65 0.71 0.81 0.96 1.09 1.07 0.93 0.74 0.62 0.55 0.51 0.44 0.43 0.44 0.45 0.52 0.59 0.62
0.07 0.09 0.17 0.31 0.42 0.43 0.39 0.37 0.45 0.50 0.50 0.41 0.37 0.43 0.45 0.47 0.43 0.39 0.36 0.33 0.32 0.32 0.34 0.34 0.31 0.28 0.28 0.36 0.50 0.75 1.00 0.98 0.76 0.59 0.47 0.43 0.43 0.41 0.38 0.37 0.43 0.49 0.48 0.51
0.06 0.06 0.13 0.33 0.38 0.35 0.33 0.26 0.26 0.31 0.31 0.27 0.29 0.35 0.35 0.38 0.39 0.30 0.22 0.21 0.21 0.21 0.21 0.20 0.20 0.18 0.20 0.28 0.40 0.56 0.67 0.63 0.53 0.42 0.40 0.42 0.44 0.39 0.37 0.37 0.39 0.42 0.42 0.43
0.08 0.10 0.32 0.59 0.53 0.44 0.41 0.23 0.15 0.15 0.16 0.19 0.29 0.31 0.31 0.29 0.29 0.28 0.18 0.12 0.12 0.12 0.13 0.15 0.16 0.20 0.23 0.28 0.35 0.40 0.42 0.42 0.36 0.33 0.33 0.36 0.37 0.37 0.43 0.47 0.45 0.45 0.47 0.48
0.16 0.21 0.43 0.55 0.49 0.50 0.49 0.33 0.13 0.09 0.10 0.09 0.09 0.11 0.13 0.13 0.11 0.11 0.07 0.04 0.04 0.03 0.03 0.05 0.05 0.07 0.09 0.11 0.13 0.14 0.14 0.15 0.14 0.14 0.16 0.17 0.18 0.24 0.36 0.42 0.44 0.47 0.51 0.51
0.22 0.29 0.43 0.37 0.23 0.25 0.38 0.44 0.12 0.05 0.04 0.02 0.01 0.04 0.06 0.07 0.07 0.03 0.02 0.01 0.01 0.01 0.00 0.00 0.00 0.01 0.01 0.02 0.02 0.03 0.02 0.02 0.03 0.03 0.04 0.05 0.08 0.11 0.18 0.21 0.27 0.35 0.37 0.40
0.24 0.42 0.63 0.45 0.25 0.23 0.39 0.40 0.09 0.03 0.01 0.00 0.00 0.00 0.02 0.05 0.05 0.04 0.02 0.01 0.01 0.01 0.01 0.01 0.00 0.00 0.01 0.01 0.01 0.01 0.01 0.01 0.01 0.01 0.01 0.02 0.03 0.05 0.09 0.10 0.15 0.20 0.24 0.30
0.31 0.60 0.83 0.64 0.42 0.34 0.26 0.11 0.03 0.01 0.00 0.00 0.00 0.00 0.01 0.03 0.03 0.03 0.02 0.01 0.01 0.00 0.00 0.01 0.01 0.00 0.00 0.01 0.01 0.01 0.02 0.01 0.01 0.01 0.02 0.02 0.02 0.04 0.05 0.06 0.09 0.12 0.14 0.18
0.23 0.46 0.52 0.47 0.36 0.25 0.17 0.07 0.01 0.00 0.00 0.00 0.00 0.00 0.00 0.01 0.02 0.01 0.01 0.01 0.01 0.00 0.00 0.01 0.01 0.00 0.01 0.01 0.01 0.02 0.02 0.02 0.02 0.02 0.02 0.03 0.04 0.05 0.05 0.05 0.08 0.10 0.13 0.19
0.05 0.10 0.15 0.18 0.18 0.11 0.08 0.05 0.01 0.00 0.00 0.00 0.00 0.00 0.00 0.01 0.02 0.02 0.01 0.01 0.01 0.01 0.01 0.01 0.01 0.00 0.00 0.01 0.01 0.01 0.02 0.01 0.02 0.02 0.02 0.03 0.04 0.05 0.06 0.06 0.08 0.12 0.18 0.23
0.05 0.03 0.03 0.07 0.08 0.07 0.04 0.02 0.00 0.00 0.00 0.00 0.00 0.00 0.00 0.01 0.03 0.02 0.02 0.01 0.01 0.01 0.01 0.01 0.01 0.01 0.00 0.00 0.01 0.01 0.01 0.01 0.01 0.02 0.03 0.03 0.03 0.03 0.05 0.05 0.07 0.15 0.22 0.27
0.04 0.03 0.02 0.04 0.04 0.04 0.02 0.01 0.00 0.00 0.00 0.00 0.00 0.00 0.00 0.00 0.02 0.03 0.03 0.01 0.01 0.01 0.01 0.01 0.01 0.00 0.00 0.00 0.00 0.01 0.01 0.01 0.01 0.02 0.03 0.03 0.04 0.04 0.05 0.06 0.10 0.12 0.12 0.14
0.02 0.02 0.02 0.02 0.02 0.01 0.01 0.01 0.00 0.00 0.00 0.00 0.00 0.00 0.00 0.00 0.01 0.03 0.04 0.02 0.01 0.01 0.02 0.01 0.01 0.00 0.00 0.00 0.00 0.00 0.01 0.01 0.01 0.01 0.02 0.03 0.05 0.07 0.09 0.07 0.05 0.05 0.05 0.06
0.01 0.02 0.02 0.01 0.01 0.01 0.01 0.01 0.00 0.00 0.00 0.00 0.00 0.00 0.00 0.00 0.01 0.01 0.02 0.01 0.02 0.02 0.02 0.02 0.01 0.01 0.01 0.01 0.01 0.00 0.00 0.01 0.02 0.05 0.06 0.08 0.08 0.12 0.17 0.21 0.18 0.11 0.06 0.05
0.01 0.02 0.01 0.01 0.01 0.01 0.01 0.01 0.01 0.00 0.00 0.00 0.00 0.00 0.00 0.00 0.00 0.01 0.01 0.02 0.02 0.02 0.02 0.01 0.01 0.01 0.01 0.00 0.00 0.01 0.01 0.02 0.04 0.10 0.12 0.10 0.11 0.16 0.18 0.14 0.12 0.12 0.10 0.08
0.02 0.01 0.00 0.01 0.01 0.01 0.00 0.00 0.01 0.01 0.01 0.00 0.00 0.00 0.00 0.00 0.00 0.00 0.01 0.01 0.02 0.02 0.02 0.01 0.01 0.01 0.01 0.01 0.01 0.01 0.01 0.02 0.04 0.09 0.12 0.10 0.10 0.11 0.11 0.10 0.08 0.10 0.11 0.12
0.03 0.02 0.01 0.01 0.01 0.01 0.00 0.00 0.00 0.01 0.01 0.01 0.01 0.00 0.00 0.01 0.01 0.01 0.00 0.01 0.02 0.02 0.01 0.01 0.02 0.01 0.01 0.02 0.02 0.02 0.02 0.03 0.04 0.06 0.09 0.08 0.08 0.09 0.09 0.10 0.11 0.12 0.11 0.12
0.02 0.02 0.02 0.02 0.01 0.01 0.01 0.01 0.01 0.01 0.00 0.01 0.01 0.01 0.01 0.01 0.02 0.02 0.02 0.01 0.01 0.02 0.01 0.01 0.02 0.02 0.02 0.02 0.03 0.03 0.04 0.06 0.07 0.09 0.09 0.08 0.08 0.11 0.13 0.13 0.12 0.14 0.14 0.15
0.02 0.02 0.02 0.02 0.01 0.01 0.01 0.01 0.01 0.01 0.01 0.01 0.01 0.01 0.02 0.02 0.02 0.02 0.01 0.01 0.01 0.01 0.01 0.02 0.02 0.02 0.02 0.03 0.04 0.05 0.05 0.07 0.09 0.11 0.11 0.10 0.11 0.13 0.16 0.15 0.14 0.15 0.17 0.18
0.03 0.03 0.03 0.02 0.01 0.01 0.01 0.01 0.01 0.01 0.01 0.01 0.01 0.01 0.02 0.02 0.02 0.02 0.02 0.02 0.02 0.02 0.01 0.02 0.02 0.02 0.03 0.04 0.06 0.07 0.07 0.09 0.11 0.13 0.14 0.13 0.15 0.16 0.17 0.16 0.17 0.19 0.19 0.20
0.03 0.03 0.02 0.02 0.01 0.01 0.01 0.01 0.01 0.01 0.01 0.01 0.01 0.02 0.02 0.02 0.02 0.03 0.04 0.04 0.03 0.03 0.03 0.03 0.02 0.02 0.03 0.05 0.08 0.09 0.11 0.11 0.13 0.14 0.14 0.14 0.15 0.17 0.19 0.19 0.20 0.21 0.21 0.20
0.05 0.04 0.03 0.02 0.02 0.02 0.02 0.01 0.01 0.01 0.01 0.02 0.02 0.03 0.02 0.02 0.02 0.02 0.03 0.04 0.04 0.04 0.05 0.04 0.04 0.04 0.06 0.09 0.08 0.08 0.09 0.11 0.12 0.14 0.15 0.15 0.16 0.18 0.19 0.20 0.21 0.22 0.22 0.23
0.07 0.06 0.05 0.05 0.04 0.04 0.04 0.03 0.02 0.02 0.02 0.02 0.03 0.03 0.03 0.03 0.03 0.04 0.04 0.04 0.05 0.06 0.06 0.05 0.07 0.09 0.13 0.10 0.09 0.09 0.10 0.12 0.13 0.15 0.18 0.21 0.22 0.22 0.22 0.21 0.21 0.22 0.24 0.27
0.08 0.07 0.06 0.06 0.05 0.05 0.05 0.05 0.04 0.03 0.03 0.03 0.03 0.04 0.04 0.05 0.06 0.06 0.07 0.08 0.08 0.09 0.08 0.09 0.10 0.14 0.17 0.13 0.13 0.13 0.14 0.15 0.16 0.17 0.19 0.22 0.26 0.26 0.25 0.24 0.25 0.25 0.26 0.27
0.06 0.06 0.07 0.07 0.07 0.07 0.07 0.07 0.06 0.06 0.06 0.06 0.06 0.06 0.06 0.07 0.08 0.08 0.09 0.10 0.12 0.12 0.12 0.13 0.15 0.17 0.16 0.15 0.17 0.17 0.19 0.22 0.23 0.25 0.25 0.26 0.27 0.29 0.30 0.30 0.31 0.33 0.32 0.30
0.05 0.06 0.07 0.08 0.09 0.09 0.08 0.08 0.07 0.07 0.07 0.08 0.08 0.08 0.09 0.09 0.08 0.09 0.09 0.10 0.12 0.14 0.14 0.15 0.16 0.17 0.17 0.20 0.22 0.22 0.23 0.24 0.25 0.27 0.29 0.31 0.33 0.35 0.38 0.39 0.38 0.39 0.39 0.37
0.04 0.05 0.06 0.07 0.08 0.09 0.09 0.09 0.09 0.08 0.08 0.08 0.09 0.08 0.09 0.11 0.12 0.13 0.12 0.12 0.12 0.15 0.17 0.20 0.22 0.24 0.25 0.26 0.26 0.27 0.28 0.29 0.30 0.31 0.33 0.35 0.37 0.38 0.41 0.43 0.46 0.48 0.48 0.47